����26�N�x�@��C��������Ԃɂ�鑪�茋��,,,,,,,,,,,,,,
,,,,,,,,,,,,,,
�P�@����n�_,,,,,,,,,,,,,,
���ˎs�����i���ˎs������106),,,,,,,,,,,,,,
,,,,,,,,,,,,,,
�Q�@���Ԓl�i�m��l�j������26�N6��5���`����26�N6��27��,,,,,,,,,,,,,,
,,,,,,,,,,,,,,
,�N,��,��,��,SO2,SPM,Ox,CO,NO,NO2,���x,���x,����,����
,,,,,ppm,mg/m3,ppm,ppm,ppm,ppm,��,%,�P�U����,m/s
H01,2014,6,5,1,***,0.042,0.021,***,***,***,19.9,85.7,CALM,0.1
H01,2014,6,5,2,0,0.045,0.03,0.3,***,***,19.2,87.7,CALM,0
H01,2014,6,5,3,0,0.037,0.021,0.3,0,0.005,19.1,90.4,CALM,0
H01,2014,6,5,4,0,0.047,0.018,0.2,0,0.008,19.1,90.5,CALM,0.2
H01,2014,6,5,5,0,0.041,0.011,0.3,0.002,0.012,18.3,91.4,CALM,0.1
H01,2014,6,5,6,0,0.057,0.009,0.3,0.007,0.016,19.1,92.7,CALM,0.2
H01,2014,6,5,7,0,0.044,0.016,0.3,0.006,0.013,18.4,90.4,CALM,0.1
H01,2014,6,5,8,0,0.052,0.02,0.3,0.005,0.015,19.5,89.8,NNW,0.7
H01,2014,6,5,9,0.001,0.052,0.018,0.3,0.006,0.014,20.3,87.5,NW,1.3
H01,2014,6,5,10,0.001,0.046,0.02,0.3,0.005,0.013,20.7,83.9,WNW,1
H01,2014,6,5,11,0.001,0.044,0.021,0.3,0.007,0.016,21.5,79.9,SW,0.7
H01,2014,6,5,12,0.001,0.042,0.023,0.4,0.006,0.015,21.7,83.2,NW,0.7
H01,2014,6,5,13,0.001,0.053,0.022,0.4,0.006,0.023,21,88.9,NW,0.9
H01,2014,6,5,14,0.001,0.067,0.021,0.4,0.01,0.027,22.2,86.6,WNW,1.9
H01,2014,6,5,15,0.001,0.046,0.024,0.4,0.007,0.025,22.6,82,WNW,0.7
H01,2014,6,5,16,0.001,0.038,0.033,0.3,0.003,0.012,24.5,62.6,SSE,1.4
H01,2014,6,5,17,0,0.027,0.039,0.2,0,0.004,22.5,73.4,ENE,0.7
H01,2014,6,5,18,0.001,0.044,0.019,0.4,0.002,0.026,21,87.7,NW,0.7
H01,2014,6,5,19,0.001,0.039,0.017,0.4,0.001,0.027,19.8,91.4,NNE,0.6
H01,2014,6,5,20,0,0.034,0.018,0.4,0.001,0.024,19.8,92.7,N,0.9
H01,2014,6,5,21,0,0.025,0.021,0.3,0,0.016,19.7,93.1,CALM,0.2
H01,2014,6,5,22,0,0.031,0.018,0.3,0,0.015,19.8,93.4,CALM,0.2
H01,2014,6,5,23,0,0.026,0.017,0.3,0,0.014,19.5,93.6,CALM,0.1
H01,2014,6,5,24,0,0.034,0.014,0.4,0,0.016,19.6,93.9,CALM,0
H01,2014,6,6,1,0,0.029,0.015,0.3,0.003,0.013,19.2,93.7,CALM,0.2
H01,2014,6,6,2,0,0.022,0.017,0.3,0,0.009,18.7,93.6,CALM,0.2
H01,2014,6,6,3,0,0.026,0.013,0.3,0,0.01,18.6,93.9,WNW,0.5
H01,2014,6,6,4,0,0.03,0.015,0.3,0,0.011,19.1,94.3,CALM,0.1
H01,2014,6,6,5,0,0.029,0.007,0.3,0.002,0.013,18.7,94,W,0.4
H01,2014,6,6,6,0,0.029,0.005,0.3,0.014,0.013,18.4,94,CALM,0.1
H01,2014,6,6,7,0,0.039,0.009,0.3,0.014,0.012,22.5,79.8,CALM,0.1
H01,2014,6,6,8,0.001,0.037,0.015,0.4,0.009,0.014,22.5,72.5,CALM,0.1
H01,2014,6,6,9,0.001,0.033,0.03,0.2,0.003,0.008,24.8,60.1,ENE,0.3
H01,2014,6,6,10,0,0.031,0.039,0.2,0.002,0.006,26.5,55.9,WSW,1.5
H01,2014,6,6,11,0,0.03,0.049,0.2,0.001,0.006,26.9,56.7,WSW,2.1
H01,2014,6,6,12,0.001,0.045,0.043,0.3,0.002,0.014,23.1,77.5,WSW,1.6
H01,2014,6,6,13,0.001,0.054,0.04,0.3,0.006,0.019,25.2,77.6,WNW,1.6
H01,2014,6,6,14,0.001,0.04,0.048,0.3,0.003,0.017,25.3,79.3,WSW,1.5
H01,2014,6,6,15,0.002,0.05,0.044,0.3,0.005,0.019,25.9,69.3,W,1.3
H01,2014,6,6,16,0.002,0.039,0.041,0.3,0.002,0.018,24.3,71.2,WSW,1.6
H01,2014,6,6,17,0.001,0.042,0.035,0.3,0.001,0.015,23.5,80,SW,0.5
H01,2014,6,6,18,0.001,0.074,0.026,0.3,0.002,0.017,23.1,80.6,CALM,0
H01,2014,6,6,19,0.001,0.052,0.022,0.4,0.001,0.017,22.4,84.1,CALM,0
H01,2014,6,6,20,0.001,0.068,0.016,0.5,0,0.017,22.4,86,CALM,0
H01,2014,6,6,21,0.001,0.032,0.018,0.4,0,0.011,22,87.2,CALM,0.1
H01,2014,6,6,22,0.001,0.029,0.021,0.3,0,0.008,21.9,86.8,CALM,0
H01,2014,6,6,23,0,0.038,0.014,0.3,0,0.008,21.6,88.4,CALM,0.1
H01,2014,6,6,24,0.001,0.037,0.015,0.3,0,0.01,21.7,90.1,WNW,0.7
H01,2014,6,7,1,0.002,0.043,0.021,0.3,0,0.013,21.4,89.6,CALM,0
H01,2014,6,7,2,0.001,0.038,0.015,0.2,0,0.01,21.2,90.5,CALM,0.1
H01,2014,6,7,3,0.001,0.036,0.009,0.3,0,0.01,21.1,91.4,CALM,0
H01,2014,6,7,4,0.001,0.051,0.009,0.3,0,0.011,20.8,91.7,CALM,0
H01,2014,6,7,5,0.001,0.046,0.003,0.3,0.006,0.012,20.7,92.4,CALM,0.1
H01,2014,6,7,6,0.001,0.055,0.003,0.4,0.007,0.014,20.7,93.1,CALM,0
H01,2014,6,7,7,0.001,0.036,0.006,0.4,0.012,0.012,21.9,93.9,CALM,0.1
H01,2014,6,7,8,0.001,0.038,0.02,0.4,0.005,0.009,23.9,77.9,SSW,0.4
H01,2014,6,7,9,0.001,0.049,0.022,0.3,0.002,0.011,23.3,77.6,WSW,1.4
H01,2014,6,7,10,0.001,0.045,0.025,0.4,0.005,0.011,24.4,69.9,SSE,0.8
H01,2014,6,7,11,0.001,0.045,0.033,0.3,0.002,0.01,25.1,69.5,SW,1
H01,2014,6,7,12,0.001,0.048,0.034,0.3,0.002,0.011,24.5,72.3,CALM,0.1
H01,2014,6,7,13,0.001,0.05,0.041,0.3,0.003,0.011,25.8,61.9,NNE,0.9
H01,2014,6,7,14,0.001,0.028,0.04,0.2,0.001,0.006,26.6,58.6,NW,1
H01,2014,6,7,15,0.001,0.037,0.05,0.2,0.002,0.011,27.9,50.3,WSW,1.1
H01,2014,6,7,16,0.001,0.043,0.058,0.3,0,0.011,26.4,60,CALM,0.2
H01,2014,6,7,17,0.002,0.062,0.041,0.5,0.003,0.019,25.8,66.3,SE,0.6
H01,2014,6,7,18,0.004,0.049,0.043,0.6,0.001,0.017,25.1,63.3,WSW,1.5
H01,2014,6,7,19,0.005,0.039,0.031,0.8,0.001,0.023,23.7,66.8,CALM,0.1
H01,2014,6,7,20,0.002,0.037,0.036,0.4,0,0.01,22.9,68,CALM,0.2
H01,2014,6,7,21,0.001,0.032,0.035,0.2,0,0.008,22.2,75.6,CALM,0.1
H01,2014,6,7,22,0.001,0.042,0.036,0.2,0,0.006,21.4,79.3,CALM,0
H01,2014,6,7,23,0.001,0.026,0.035,0.2,0,0.006,21.2,81.7,CALM,0
H01,2014,6,7,24,0.001,0.042,0.036,0.2,0,0.005,21.6,79.2,WSW,0.9
H01,2014,6,8,1,0.002,0.036,0.037,0.2,0,0.006,21.1,78.9,CALM,0
H01,2014,6,8,2,0.001,0.035,0.032,0.2,0,0.006,20,89.1,CALM,0
H01,2014,6,8,3,0.001,0.036,0.025,0.2,0,0.006,19.8,91.3,CALM,0
H01,2014,6,8,4,0.001,0.03,0.024,0.2,0,0.006,19.8,91.8,ENE,0.8
H01,2014,6,8,5,0.001,0.029,0.027,0.3,0.001,0.007,19.7,90.2,ENE,0.3
H01,2014,6,8,6,0.001,0.024,0.026,0.3,0,0.005,20.2,90,NE,1.2
H01,2014,6,8,7,0.001,0.017,0.029,0.3,0,0.006,21.1,83.6,NE,1.1
H01,2014,6,8,8,0.001,0.035,0.034,0.3,0,0.005,23.1,77.3,N,0.8
H01,2014,6,8,9,0.001,0.027,0.041,0.2,0,0.004,24.8,64.1,NNW,1
H01,2014,6,8,10,0.001,0.028,0.047,0.2,0,0.003,25.6,57,NE,1.2
H01,2014,6,8,11,0.001,0.019,0.051,0.2,0,0.003,28.3,56.6,WNW,0.7
H01,2014,6,8,12,0.001,0.03,0.058,0.2,0,0.003,29,50.7,SW,1
H01,2014,6,8,13,0.001,0.014,0.063,0.2,0,0.003,29.7,46.1,WSW,0.9
H01,2014,6,8,14,0.001,0.027,0.076,0.3,0,0.004,30.5,47.2,S,1
H01,2014,6,8,15,0.002,0.034,0.07,0.2,0,0.004,29,48.3,S,1.1
H01,2014,6,8,16,0.001,0.038,0.065,0.2,0,0.003,28.2,50.4,SSE,0.9
H01,2014,6,8,17,0.001,0.031,0.061,0.2,0,0.003,27.3,51.9,SSW,1.3
H01,2014,6,8,18,0.001,0.027,0.056,0.2,0,0.003,25.4,56.6,SW,1.3
H01,2014,6,8,19,0.001,0.025,0.05,0.2,0,0.003,23.4,66.3,SW,0.3
H01,2014,6,8,20,0.001,0.027,0.047,0.2,0,0.003,22.8,70.3,CALM,0.2
H01,2014,6,8,21,0.001,0.022,0.044,0.2,0,0.004,22.4,75,WSW,0.3
H01,2014,6,8,22,0.001,0.021,0.039,0.3,0,0.006,21.7,75.5,ESE,0.5
H01,2014,6,8,23,0.001,0.024,0.035,0.3,0,0.006,21.2,79.3,CALM,0
H01,2014,6,8,24,0,0.029,0.029,0.3,0,0.005,20.9,83.5,SW,0.4
H01,2014,6,9,1,0,0.02,0.024,0.3,0,0.005,21,83.7,CALM,0
H01,2014,6,9,2,0,0.023,0.024,0.3,0,0.005,20.7,84.6,CALM,0.2
H01,2014,6,9,3,0,0.023,0.02,0.3,0,0.009,20.7,84.3,CALM,0
H01,2014,6,9,4,0,0.023,0.012,0.3,0,0.009,20.6,84.8,CALM,0.2
H01,2014,6,9,5,0,0.038,0.012,0.3,0.001,0.009,20.2,87.8,CALM,0
H01,2014,6,9,6,0,0.034,0.006,0.3,0.007,0.012,21.3,86.3,CALM,0
H01,2014,6,9,7,0.001,0.034,0.017,0.3,0.007,0.013,22.6,77.4,NNE,0.9
H01,2014,6,9,8,0.002,0.041,0.025,0.4,0.006,0.012,24.2,67.2,NNW,0.8
H01,2014,6,9,9,0.002,0.031,0.03,0.4,0.006,0.01,25.1,66.8,NNE,0.5
H01,2014,6,9,10,0.002,0.034,0.04,0.3,0.001,0.007,27.2,58.4,WSW,0.7
H01,2014,6,9,11,0.001,0.032,0.049,0.3,0.001,0.006,28.1,54.9,WSW,1.3
H01,2014,6,9,12,0.001,0.042,0.06,0.3,0,0.006,28.1,49.5,WSW,2.2
H01,2014,6,9,13,0.001,0.041,0.067,0.2,0,0.007,28.1,50.4,SW,1.2
H01,2014,6,9,14,0.002,0.052,0.057,0.5,0.002,0.013,28.2,53.3,SW,1.7
H01,2014,6,9,15,0.001,0.056,0.054,0.4,0,0.007,27.6,55.3,SSW,0.8
H01,2014,6,9,16,0,0.035,0.043,0.2,0.001,0.007,27.3,60.9,SW,0.7
H01,2014,6,9,17,0.001,0.04,0.045,0.2,0,0.005,27.3,55.7,SSW,0.9
H01,2014,6,9,18,0,0.037,0.04,0.2,0,0.004,25.8,59.3,SW,0.7
H01,2014,6,9,19,0,0.039,0.037,0.2,0,0.005,24.7,66.3,S,0.4
H01,2014,6,9,20,0.001,0.038,0.032,0.2,0,0.007,23.7,72.2,SW,0.4
H01,2014,6,9,21,0.001,0.029,0.024,0.2,0,0.01,23.2,77.8,CALM,0.2
H01,2014,6,9,22,0.001,0.043,0.021,0.2,0,0.009,22.9,78.2,SSE,0.3
H01,2014,6,9,23,0,0.039,0.017,0.3,0,0.01,21.9,82.9,CALM,0
H01,2014,6,9,24,0,0.04,0.016,0.3,0,0.008,21.4,84.9,E,0.3
H01,2014,6,10,1,0,0.034,0.01,0.3,0,0.008,20.7,89,CALM,0
H01,2014,6,10,2,0,0.043,0.006,0.3,0,0.006,20,89.1,CALM,0
H01,2014,6,10,3,0,0.039,0.005,0.3,0,0.006,19.6,89.9,CALM,0.2
H01,2014,6,10,4,0,0.024,0.005,0.2,0,0.007,19.4,89.9,CALM,0.2
H01,2014,6,10,5,0,0.03,0.001,0.3,0.01,0.009,19.2,90.6,CALM,0
H01,2014,6,10,6,0,0.045,0.002,0.3,0.01,0.012,20.7,89.2,CALM,0.1
H01,2014,6,10,7,0.001,0.041,0.007,0.3,0.014,0.009,23.7,72,S,0.3
H01,2014,6,10,8,0.001,0.043,0.022,0.2,0.002,0.005,24.9,62.1,NW,0.4
H01,2014,6,10,9,0.001,0.034,0.025,0.2,0.002,0.004,26.8,56.9,SSE,0.3
H01,2014,6,10,10,0.001,0.043,0.029,0.2,0,0.002,27.2,50.4,WSW,0.7
H01,2014,6,10,11,0.001,0.037,0.035,0.2,0.001,0.004,28.2,50.9,W,1
H01,2014,6,10,12,0.001,0.04,0.044,0.2,0,0.006,29.2,49.6,SSE,0.8
H01,2014,6,10,13,0,0.037,0.05,0.2,0,0.005,29.4,50.2,SW,1.3
H01,2014,6,10,14,0.003,0.058,0.039,0.4,0.001,0.017,25.3,67,WSW,2.1
H01,2014,6,10,15,0.003,0.057,0.031,0.3,0.001,0.017,25.3,72.9,S,0.9
H01,2014,6,10,16,0.002,0.043,0.032,0.2,0,0.005,24.9,69.6,SW,0.7
H01,2014,6,10,17,0.004,0.053,0.022,0.2,0.003,0.006,25.1,64.7,SSE,0.7
H01,2014,6,10,18,0.003,0.038,0.019,0.2,0.001,0.005,24.3,69.5,SSW,0.4
H01,2014,6,10,19,0.001,0.033,0.016,0.3,0,0.007,23.7,72,CALM,0.2
H01,2014,6,10,20,0.001,0.04,0.014,0.2,0,0.004,23.2,75.7,S,0.4
H01,2014,6,10,21,0.001,0.035,0.013,0.2,0,0.004,22.9,77.6,CALM,0.1
H01,2014,6,10,22,0,0.033,0.009,0.3,0,0.005,22.2,82.8,WSW,0.4
H01,2014,6,10,23,0,0.04,0.003,0.3,0.001,0.006,21.6,85.5,CALM,0.1
H01,2014,6,10,24,0,0.024,0.002,0.3,0.001,0.006,21.6,85.6,CALM,0.2
H01,2014,6,11,1,0,0.034,0.003,0.2,0,0.005,21,87.1,CALM,0.1
H01,2014,6,11,2,0,0.045,0.003,0.2,0.002,0.006,21,87.3,E,0.4
H01,2014,6,11,3,0,0.044,0.008,0.2,0,0.004,20.9,84.8,CALM,0
H01,2014,6,11,4,0,0.036,0.005,0.2,0,0.004,21,85.7,CALM,0.1
H01,2014,6,11,5,0,0.044,0.002,0.3,0.004,0.007,21.2,87.3,CALM,0.1
H01,2014,6,11,6,0.001,0.047,0.001,0.3,0.012,0.008,20.7,85.7,CALM,0.1
H01,2014,6,11,7,0.001,0.041,0.001,0.4,0.022,0.009,21.4,85.6,ESE,0.4
H01,2014,6,11,8,0.001,0.043,0.004,0.4,0.018,0.01,23.5,76.8,N,0.5
H01,2014,6,11,9,0.001,0.045,0.01,0.2,0.005,0.007,23.3,72.5,CALM,0.2
H01,2014,6,11,10,0.001,0.039,0.011,0.2,0.001,0.006,23.2,72,S,0.3
H01,2014,6,11,11,0.001,0.061,0.008,0.3,0.006,0.009,22.1,81.7,CALM,0.1
H01,2014,6,11,12,0.001,0.032,0.01,0.3,0.009,0.007,22.7,79,NE,0.8
H01,2014,6,11,13,0.001,0.038,0.015,0.2,0.004,0.009,23.1,72.2,NNE,1.3
H01,2014,6,11,14,0.001,0.042,0.012,0.3,0.009,0.011,22.3,81.9,NNE,1.3
H01,2014,6,11,15,0.001,0.041,0.013,0.3,0.008,0.013,22.7,77.8,N,0.9
H01,2014,6,11,16,0.001,0.032,0.021,0.2,0.006,0.009,22.9,76.8,NNE,1.4
H01,2014,6,11,17,0.001,0.034,0.017,0.3,0.003,0.009,22.9,78.7,N,1.1
H01,2014,6,11,18,0.001,0.042,0.013,0.3,0.005,0.011,22.5,83.3,NE,0.8
H01,2014,6,11,19,0,0.046,0.01,0.3,0.003,0.01,21.9,89.6,CALM,0
H01,2014,6,11,20,0,0.041,0.006,0.3,0.001,0.011,21.3,91.6,SW,0.3
H01,2014,6,11,21,0,0.031,0.007,0.3,0.001,0.01,20.8,91.6,CALM,0
H01,2014,6,11,22,0,0.026,0.004,0.2,0,0.01,20.6,92.5,CALM,0.1
H01,2014,6,11,23,0,0.025,0.003,0.2,0.001,0.01,20.7,93.2,CALM,0.2
H01,2014,6,11,24,0.001,0.034,0.002,0.3,0.002,0.013,20.8,93.5,NNE,0.6
H01,2014,6,12,1,***,0.028,0.001,***,***,***,20.8,93.2,ENE,0.5
H01,2014,6,12,2,0.001,0.046,0.001,0.3,***,***,20.8,93.2,WNW,0.4
H01,2014,6,12,3,0.001,0.037,0.001,0.3,0.003,0.013,20.4,92.9,CALM,0
H01,2014,6,12,4,0,0.047,0.001,0.3,0.006,0.01,20.5,93.2,CALM,0
H01,2014,6,12,5,0,0.035,0.001,0.3,0.011,0.01,20.1,93.2,CALM,0
H01,2014,6,12,6,0,0.039,0.001,0.4,0.028,0.009,20.6,93.9,CALM,0.2
H01,2014,6,12,7,0.001,0.035,0.003,0.3,0.02,0.008,22.3,89.4,N,0.3
H01,2014,6,12,8,0.001,0.039,0.009,0.3,0.011,0.008,24.2,70.9,NW,0.8
H01,2014,6,12,9,0.002,0.028,0.015,0.2,0.01,0.009,26.5,66,N,0.6
H01,2014,6,12,10,0.001,0.027,0.025,0.2,0.005,0.008,27.6,55.3,NW,1.1
H01,2014,6,12,11,0.001,0.033,0.038,0.2,0.004,0.008,29.3,51.9,NW,1.2
H01,2014,6,12,12,0.001,0.03,0.047,0.2,0.002,0.009,30,49.2,WNW,1
H01,2014,6,12,13,0.001,0.036,0.052,0.2,0.002,0.008,31.5,48.1,NW,1.2
H01,2014,6,12,14,0.001,0.031,0.05,0.1,0.002,0.006,30.6,44.5,W,2
H01,2014,6,12,15,0.001,0.028,0.043,0.2,0.003,0.013,29.6,52.4,W,1.6
H01,2014,6,12,16,0.001,0.036,0.044,0.2,0.002,0.007,30.3,47.9,WNW,2.7
H01,2014,6,12,17,0.001,0.024,0.043,0.2,0.001,0.006,28.8,50.1,WNW,2.7
H01,2014,6,12,18,0.001,0.028,0.038,0.2,0.001,0.007,27,56.4,WSW,1
H01,2014,6,12,19,0.001,0.024,0.032,0.2,0,0.009,24.3,64.8,WNW,2.9
H01,2014,6,12,20,0.001,0.015,0.033,0.2,0,0.008,23.6,60.8,NW,2.1
H01,2014,6,12,21,0,0.023,0.037,0.2,0,0.005,22.4,70.2,WNW,1.3
H01,2014,6,12,22,0.001,0.028,0.028,0.2,0,0.01,21.8,73.4,WNW,1
H01,2014,6,12,23,0.001,0.021,0.027,0.2,0.001,0.009,21.2,77.1,NW,0.4
H01,2014,6,12,24,0.001,0.009,0.028,0.2,0,0.009,20.7,74.1,NW,1.4
H01,2014,6,13,1,0.001,0.014,0.036,0.2,0,0.008,20.5,71.3,NW,1.4
H01,2014,6,13,2,0.001,0.031,0.042,0.2,0,0.005,20,74.4,NW,0.5
H01,2014,6,13,3,0,0.036,0.036,0.1,0,0.006,18.9,80.5,CALM,0
H01,2014,6,13,4,0,0.029,0.025,0.1,0,0.008,17.7,85.8,CALM,0.1
H01,2014,6,13,5,0,0.031,0.015,0.2,0.002,0.01,17.6,89.9,CALM,0.1
H01,2014,6,13,6,0.001,0.028,0.01,0.2,0.007,0.018,19.5,79.3,CALM,0.2
H01,2014,6,13,7,0.001,0.018,0.02,0.2,0.007,0.016,22.6,64.4,WNW,1.5
H01,2014,6,13,8,0.001,0.019,0.033,0.2,0.003,0.009,22.3,60.2,WNW,1.3
H01,2014,6,13,9,0.001,0.018,0.037,0.1,0.002,0.007,23.6,55.3,W,1.9
H01,2014,6,13,10,0.001,0.023,0.037,0.1,0.004,0.008,23.7,54,NNW,1.5
H01,2014,6,13,11,0.001,0.033,0.037,0.2,0.002,0.008,24.6,53.8,NW,2.3
H01,2014,6,13,12,0.001,0.036,0.039,0.1,0.003,0.007,25.7,49.7,W,2.8
H01,2014,6,13,13,0.001,0.024,0.042,0.1,0.002,0.006,26.3,49.2,NW,1.9
H01,2014,6,13,14,0.001,0.022,0.044,0.1,0.003,0.006,26.6,42.6,WNW,2.6
H01,2014,6,13,15,0,0.021,0.044,0.1,0.002,0.006,26.9,41.2,W,2.7
H01,2014,6,13,16,0,0.027,0.046,0.1,0.002,0.006,26.6,40.3,NW,2.9
H01,2014,6,13,17,0,0.033,0.05,0.1,0.001,0.004,25.5,40.3,NW,2.8
H01,2014,6,13,18,0,0.021,0.044,0.1,0.001,0.004,24.5,45.1,NW,2.1
H01,2014,6,13,19,0,0.016,0.041,0.1,0,0.004,22.7,51.3,NNW,1.5
H01,2014,6,13,20,0,0.024,0.039,0.2,0,0.003,21.4,55.9,NNW,1.2
H01,2014,6,13,21,0,0.025,0.037,0.2,0,0.004,20.9,58.5,NNE,1.3
H01,2014,6,13,22,0,0.028,0.036,0.2,0,0.004,19.1,63.8,W,0.3
H01,2014,6,13,23,0,0.024,0.033,0.2,0,0.004,18.3,69.9,SW,0.4
H01,2014,6,13,24,0,0.025,0.024,0.2,0,0.006,17.5,76.8,CALM,0.1
H01,2014,6,14,1,0,0.028,0.018,0.2,0,0.007,16.9,78.3,CALM,0
H01,2014,6,14,2,0,0.018,0.013,0.2,0,0.007,15.9,84.1,SE,0.3
H01,2014,6,14,3,0,0.021,0.011,0.2,0,0.008,16,87,CALM,0.2
H01,2014,6,14,4,0.001,0.029,0.01,0.3,0,0.009,15.8,86.7,CALM,0.1
H01,2014,6,14,5,0.001,0.031,0.005,0.3,0.015,0.013,15.4,87.9,CALM,0
H01,2014,6,14,6,0.001,0.025,0.01,0.3,0.008,0.013,18,69.8,E,0.3
H01,2014,6,14,7,0.001,0.034,0.018,0.3,0.005,0.008,20.2,60.1,ENE,0.3
H01,2014,6,14,8,0.001,0.024,0.03,0.3,0.004,0.006,22.9,49.9,N,1.2
H01,2014,6,14,9,0.001,0.047,0.037,0.3,0.002,0.006,24.2,48,WSW,1.2
H01,2014,6,14,10,0.001,0.034,0.045,0.2,0.003,0.007,25.5,48.5,NW,1.6
H01,2014,6,14,11,0.001,0.033,0.054,0.2,0.001,0.005,26.9,46.6,N,2
H01,2014,6,14,12,0.001,0.035,0.056,0.2,0.001,0.005,27.2,44.6,NNW,1.8
H01,2014,6,14,13,0,0.021,0.053,0.2,0.001,0.004,26.4,44.7,NNW,2.2
H01,2014,6,14,14,0,0.02,0.05,0.2,0.001,0.003,27.9,37.2,NW,2
H01,2014,6,14,15,0,0.021,0.05,0.2,0.001,0.003,28.5,33.2,NW,2.2
H01,2014,6,14,16,0,0.033,0.052,0.2,0.001,0.004,28.2,35.9,NW,1.7
H01,2014,6,14,17,0.001,0.033,0.052,0.2,0.001,0.004,27.8,31.7,W,2
H01,2014,6,14,18,0,0.025,0.049,0.2,0,0.005,27,36.9,W,1.4
H01,2014,6,14,19,0.001,0.02,0.046,0.2,0,0.006,26,37.2,W,1.5
H01,2014,6,14,20,0.001,0.02,0.04,0.2,0,0.009,24.6,43.6,W,1.1
H01,2014,6,14,21,0.001,0.02,0.036,0.3,0,0.011,21.9,55.5,WSW,0.9
H01,2014,6,14,22,0.001,0.028,0.024,0.3,0,0.01,19.5,64.7,CALM,0.1
H01,2014,6,14,23,0,0.022,0.017,0.3,0,0.01,18.1,70.4,CALM,0.1
H01,2014,6,14,24,0.001,0.019,0.016,0.2,0,0.009,17.4,71.8,CALM,0
H01,2014,6,15,1,0.001,0.014,0.018,0.2,0,0.008,16.7,73.3,CALM,0.1
H01,2014,6,15,2,0.001,0.028,0.017,0.1,0,0.007,16.8,77.7,CALM,0.1
H01,2014,6,15,3,0.001,0.017,0.021,0.1,0,0.005,18.1,69.6,CALM,0.2
H01,2014,6,15,4,0.001,0.024,0.022,0.1,0,0.006,17.3,68.7,WNW,0.7
H01,2014,6,15,5,0.001,0.023,0.02,0.1,0.003,0.009,17.3,66,N,0.3
H01,2014,6,15,6,0.001,0.015,0.017,0.1,0.001,0.006,18.6,59.6,CALM,0
H01,2014,6,15,7,0.001,0.015,0.027,0.1,0.001,0.005,22,44.8,WSW,0.3
H01,2014,6,15,8,0,0.031,0.039,0.1,0,0.002,23.7,40.9,NNE,1.4
H01,2014,6,15,9,0,0.029,0.046,0.1,0,0.002,25.3,43.5,NW,1
H01,2014,6,15,10,0,0.03,0.054,0.1,0,0.002,27,39,WSW,0.9
H01,2014,6,15,11,0,0.025,0.06,0.1,0,0.002,28.5,34.5,W,1.6
H01,2014,6,15,12,0,0.031,0.065,0.2,0,0.002,29.1,31.6,N,1.6
H01,2014,6,15,13,0.001,0.035,0.069,0.2,0,0.003,30.5,27.9,WNW,1.3
H01,2014,6,15,14,0.001,0.03,0.068,0.2,0,0.002,31.2,27.3,W,0.8
H01,2014,6,15,15,0.001,0.02,0.069,0.2,0,0.002,31.7,23.6,WSW,1.4
H01,2014,6,15,16,0.001,0.019,0.072,0.2,0,0.002,31.8,23.4,WNW,1.4
H01,2014,6,15,17,0.001,0.049,0.078,0.3,0,0.003,28.1,43.5,SW,0.8
H01,2014,6,15,18,0.002,0.041,0.073,0.3,0,0.005,27.9,42.7,SW,1.4
H01,2014,6,15,19,0.001,0.053,0.067,0.2,0,0.003,26.1,46.3,SE,0.4
H01,2014,6,15,20,0.001,0.053,0.061,0.2,0,0.005,24.2,60.1,CALM,0
H01,2014,6,15,21,0.001,0.047,0.058,0.2,0,0.004,23.3,63.4,SSE,0.3
H01,2014,6,15,22,0.001,0.038,0.058,0.2,0,0.003,22.2,65.6,CALM,0
H01,2014,6,15,23,0.001,0.043,0.054,0.2,0,0.003,21.9,66.8,CALM,0.1
H01,2014,6,15,24,0,0.037,0.042,0.3,0,0.004,20.1,74.4,CALM,0.1
H01,2014,6,16,1,0,0.048,0.033,0.3,0,0.007,19.5,78,S,0.4
H01,2014,6,16,2,0.001,0.033,0.027,0.3,0,0.008,18.7,80.8,CALM,0
H01,2014,6,16,3,0,0.048,0.02,0.3,0,0.008,17.8,84.7,CALM,0
H01,2014,6,16,4,0,0.046,0.014,0.4,0.001,0.008,16.9,86.2,CALM,0.1
H01,2014,6,16,5,0,0.047,0.008,0.4,0.007,0.018,16.9,88.4,CALM,0
H01,2014,6,16,6,0,0.053,0.006,0.4,0.013,0.017,19.1,79.7,SSE,0.3
H01,2014,6,16,7,0.001,0.049,0.018,0.4,0.007,0.018,23,57.8,NW,0.5
H01,2014,6,16,8,0.001,0.054,0.031,0.4,0.005,0.01,25.1,50.9,N,1
H01,2014,6,16,9,0.001,0.047,0.041,0.4,0.003,0.009,26.7,44.5,NNW,0.9
H01,2014,6,16,10,0.001,0.045,0.051,0.3,0.002,0.006,28.8,40.1,WNW,1
H01,2014,6,16,11,0.001,0.034,0.058,0.4,0.002,0.008,29.3,31.5,W,1.6
H01,2014,6,16,12,0.001,0.029,0.061,0.3,0.002,0.008,31.4,29.5,W,1.5
H01,2014,6,16,13,0.001,0.035,0.074,0.3,0.001,0.008,31.5,27.7,NNW,1.6
H01,2014,6,16,14,0.001,0.051,0.075,0.3,0.001,0.008,32.1,28.7,W,1.4
H01,2014,6,16,15,0.001,0.026,0.074,0.3,0.001,0.006,32,25.7,WSW,1.8
H01,2014,6,16,16,0.001,0.033,0.073,0.3,0.001,0.01,31.2,27.1,WSW,1.6
H01,2014,6,16,17,0.001,0.031,0.072,0.5,0,0.009,30.8,28.6,WSW,1.3
H01,2014,6,16,18,0.001,0.042,0.087,0.4,0,0.007,29.9,31.8,WSW,1.2
H01,2014,6,16,19,0.001,0.043,0.071,0.4,0,0.01,27,45.1,NE,0.3
H01,2014,6,16,20,0.001,0.057,0.059,0.4,0,0.01,24.6,57.1,CALM,0
H01,2014,6,16,21,0.001,0.05,0.051,0.4,0,0.011,23.7,61.1,CALM,0
H01,2014,6,16,22,0.001,0.055,0.044,0.4,0,0.011,22.5,65.2,CALM,0
H01,2014,6,16,23,0.001,0.046,0.049,0.3,0,0.006,21.5,68.3,CALM,0.2
H01,2014,6,16,24,0.001,0.046,0.041,0.3,0,0.006,20.2,71.8,CALM,0
H01,2014,6,17,1,0,0.04,0.03,0.4,0,0.008,19.1,78.2,CALM,0
H01,2014,6,17,2,0,0.034,0.027,0.4,0,0.008,18.5,81.1,CALM,0.2
H01,2014,6,17,3,0,0.045,0.02,0.4,0,0.01,17.9,82.9,CALM,0.1
H01,2014,6,17,4,0.001,0.055,0.016,0.4,0,0.013,17.6,84.5,CALM,0
H01,2014,6,17,5,0.001,0.062,0.009,0.5,0.003,0.018,17.8,86.8,CALM,0.1
H01,2014,6,17,6,0.001,0.05,0.007,0.5,0.006,0.021,18.9,82.4,CALM,0
H01,2014,6,17,7,0.001,0.046,0.006,0.6,0.016,0.023,21.3,73.6,CALM,0.1
H01,2014,6,17,8,0.001,0.076,0.016,0.6,0.013,0.024,22.9,60.8,NE,0.5
H01,2014,6,17,9,0.002,0.072,0.024,0.5,0.011,0.024,24.8,49.8,NNE,0.8
H01,2014,6,17,10,0.002,0.048,0.042,0.3,0.004,0.017,26,45.4,SW,0.6
H01,2014,6,17,11,0.002,0.042,0.042,0.3,0.005,0.02,28.1,40.7,WSW,0.7
H01,2014,6,17,12,0.001,0.037,0.056,0.4,0.002,0.016,28.5,37.2,SSW,0.7
H01,2014,6,17,13,0.001,0.029,0.067,0.4,0.001,0.012,29,35.4,WSW,0.8
H01,2014,6,17,14,0.002,0.05,0.08,0.5,0.001,0.016,28.7,41.1,SSW,0.7
H01,2014,6,17,15,0.005,0.066,0.067,1,0.002,0.026,28.1,43.3,SSW,0.7
H01,2014,6,17,16,0.005,0.08,0.073,0.8,0.002,0.022,27.2,48.5,S,0.8
H01,2014,6,17,17,0.003,0.066,0.078,0.6,0.001,0.017,26.5,51,SSE,0.5
H01,2014,6,17,18,0.003,0.078,0.078,0.5,0,0.015,25.7,55.5,SW,0.6
H01,2014,6,17,19,0.001,0.084,0.07,0.4,0,0.013,24.5,64.5,CALM,0.1
H01,2014,6,17,20,0.001,0.075,0.06,0.5,0,0.013,23.4,67.9,CALM,0
H01,2014,6,17,21,0.001,0.071,0.053,0.5,0,0.013,23,70.6,CALM,0.1
H01,2014,6,17,22,0.001,0.075,0.053,0.5,0.001,0.012,22.7,70.7,CALM,0.1
H01,2014,6,17,23,0.001,0.081,0.056,0.4,0,0.008,22.7,69.5,S,0.3
H01,2014,6,17,24,0.001,0.071,0.05,0.5,0,0.009,22.2,71,CALM,0
H01,2014,6,18,1,0.001,0.058,0.048,0.5,0,0.007,22,68.8,SSE,0.4
H01,2014,6,18,2,0.001,0.038,0.051,0.4,0,0.005,21.9,66.2,SSE,0.6
H01,2014,6,18,3,0.001,0.037,0.051,0.4,0,0.004,21.6,65.7,SSE,0.4
H01,2014,6,18,4,0.001,0.049,0.051,0.3,0,0.004,21.3,62.4,CALM,0.2
H01,2014,6,18,5,0,0.042,0.053,0.3,0,0.004,21,61.9,SSE,0.3
H01,2014,6,18,6,0,0.034,0.05,0.3,0,0.007,20.7,65.2,CALM,0
H01,2014,6,18,7,0,0.039,0.035,0.3,0.002,0.016,21.4,67.8,CALM,0
H01,2014,6,18,8,0,0.043,0.046,0.3,0.001,0.009,22.5,57.8,SSE,0.3
H01,2014,6,18,9,0.001,0.051,0.053,0.3,0.001,0.009,23.1,55.7,WSW,1
H01,2014,6,18,10,0.001,0.036,0.058,0.3,0.001,0.01,23.7,54,SW,0.7
H01,2014,6,18,11,0.001,0.03,0.061,0.3,0,0.008,23.3,55.6,WSW,0.9
H01,2014,6,18,12,0.001,0.032,0.058,0.3,0.001,0.008,23.5,57.8,SW,1.2
H01,2014,6,18,13,0.001,0.041,0.059,0.3,0.001,0.007,22.5,64,SW,1.3
H01,2014,6,18,14,0,0.033,0.057,0.3,0.001,0.008,21.1,72,S,0.5
H01,2014,6,18,15,0,0.047,0.048,0.3,0.002,0.012,20.7,78.4,SSW,0.5
H01,2014,6,18,16,0,0.049,0.046,0.3,0.001,0.012,20.7,79,SW,0.5
H01,2014,6,18,17,0,0.045,0.041,0.4,0,0.012,20.2,86,CALM,0
H01,2014,6,18,18,0,0.056,0.041,0.3,0,0.017,19.9,89.5,SW,0.4
H01,2014,6,18,19,0.001,0.046,0.036,0.3,0,0.018,19.4,91,CALM,0.1
H01,2014,6,18,20,0,0.061,0.033,0.5,0,0.016,19.2,92.2,CALM,0.1
H01,2014,6,18,21,0,0.05,0.026,0.6,0,0.015,19.5,93,CALM,0
H01,2014,6,18,22,0,0.051,0.021,0.7,0,0.014,19.2,93.2,CALM,0
H01,2014,6,18,23,0,0.06,0.02,0.8,0.001,0.014,19.2,93.4,CALM,0
H01,2014,6,18,24,0,0.051,0.019,0.5,0.001,0.01,19.1,93.5,CALM,0
H01,2014,6,19,1,***,0.044,0.017,***,***,***,19.1,93.8,ENE,0.5
H01,2014,6,19,2,0,0.053,0.023,0.4,***,***,18.5,93.1,WSW,0.3
H01,2014,6,19,3,0,0.058,0.016,0.4,0,0.009,18.2,93,CALM,0.2
H01,2014,6,19,4,0,0.047,0.011,0.4,0.001,0.011,17.7,93.1,CALM,0.1
H01,2014,6,19,5,0,0.062,0.006,0.4,0.014,0.019,17.6,93.8,E,0.3
H01,2014,6,19,6,0,0.043,0.007,0.4,0.014,0.018,19,94.6,CALM,0.1
H01,2014,6,19,7,0,0.046,0.02,0.4,0.006,0.014,21.8,74,W,0.4
H01,2014,6,19,8,0,0.061,0.027,0.4,0.006,0.01,22.5,66.1,WNW,0.7
H01,2014,6,19,9,0,0.052,0.033,0.4,0.004,0.009,24.3,60.4,CALM,0.2
H01,2014,6,19,10,0,0.036,0.042,0.3,0.005,0.01,25.5,54.7,WSW,0.8
H01,2014,6,19,11,0.001,0.04,0.053,0.4,0.003,0.008,26.7,55.5,WSW,1
H01,2014,6,19,12,0,0.037,0.07,0.4,0.001,0.009,27.8,51.1,SW,0.9
H01,2014,6,19,13,0.001,0.056,0.088,0.5,0,0.008,28.5,48.4,SSE,0.8
H01,2014,6,19,14,0.001,0.051,0.089,0.6,0.002,0.012,29.4,44.9,SSE,0.8
H01,2014,6,19,15,0.002,0.063,0.094,0.5,0.001,0.01,29.3,43.7,SW,2.1
H01,2014,6,19,16,0.002,0.042,0.079,0.4,0.001,0.009,29.3,42.7,SSW,1
H01,2014,6,19,17,0.001,0.039,0.071,0.4,0.001,0.007,28.1,47.9,S,1.3
H01,2014,6,19,18,0.001,0.045,0.072,0.4,0,0.007,25.9,53,SSE,0.9
H01,2014,6,19,19,0.001,0.042,0.067,0.3,0,0.007,24.6,57.2,S,0.5
H01,2014,6,19,20,0.001,0.036,0.064,0.3,0,0.006,22.9,65,SSE,0.4
H01,2014,6,19,21,0,0.04,0.064,0.3,0,0.005,22.2,71.2,SSE,0.4
H01,2014,6,19,22,0,0.054,0.063,0.3,0,0.005,21.7,73.6,S,0.5
H01,2014,6,19,23,0,0.04,0.055,0.3,0,0.005,21.1,75.9,CALM,0.2
H01,2014,6,19,24,0,0.044,0.051,0.3,0,0.004,20.4,78.1,SSW,0.4
H01,2014,6,20,1,0,0.031,0.055,0.3,0,0.003,21.1,72.6,W,0.4
H01,2014,6,20,2,0,0.029,0.045,0.3,0,0.004,19.5,78.6,CALM,0
H01,2014,6,20,3,0,0.039,0.028,0.3,0,0.006,18.8,82.5,CALM,0.1
H01,2014,6,20,4,0,0.033,0.02,0.3,0.001,0.01,18.6,83.2,CALM,0
H01,2014,6,20,5,0,0.021,0.014,0.3,0.005,0.014,18.5,84.4,CALM,0